Location: Knowlton
(51.2333°N, 1.2667°E)
Time: 04:27:10
(UTC+00:00)

Cosmos 2058 - Pass Details

Date: 18 April 2021
Orbit: 562 x 583 km, 82.5° (Epoch: 06 May)

Event Time Altitude Azimuth Distance (km) Brightness Sun altitude
Rises 20:22:11 0° 346° (NNW) 2,815 7.3 -12.7°
Reaches altitude 10° 20:24:25 10° 342° (NNW) 1,908 6.5 -12.9°
Maximum altitude 20:28:31 54° 265° (W) 708 3.6 -13.5°
Drops below altitude 10° 20:32:34 10° 188° (S) 1,881 5.2 -14.0°
Enters shadow 20:33:20 - 186° (S) 2,186 5.6 -14.0°
